Location: Laupheim
(48.2265°N, 9.8829°E)
Time: 02:57:05
(UTC+01:00)

N. Korean satellite - Visible Passes

Search period start: 25 November 2017 00:00
Search period end: 05 December 2017 00:00
Orbit: 460 x 514 km, 97.2° (Epoch: 24 November)

Date Brightness Start Highest point End Pass type
(mag) Time Alt. Az. Time Alt. Az. Time Alt. Az.
25 Nov 8.7 06:41:39 10° NNE 06:45:07 33° E 06:48:33 10° SSE visible
25 Nov 7.7 17:21:51 10° ESE 17:24:43 23° ENE 17:27:36 10° NNE visible
25 Nov 8.6 18:55:00 10° SSW 18:58:07 28° W 19:01:19 10° NNW visible
26 Nov 9.7 06:18:42 10° NE 06:21:28 19° E 06:24:13 10° SE visible
26 Nov 7.3 18:31:02 10° S 18:34:30 54° W 18:38:06 10° NNW visible
27 Nov 10.3 05:56:43 10° ENE 05:57:44 11° E 05:58:44 10° ESE visible
27 Nov 6.4 18:07:26 10° SSE 18:10:59 77° ENE 18:14:39 10° N visible
28 Nov 7.3 07:04:26 10° NNE 07:08:11 63° E 07:11:55 10° S visible
28 Nov 7.0 17:44:10 10° SE 17:47:33 40° ENE 17:51:00 10° N visible
28 Nov 9.6 19:18:56 10° SW 19:21:16 16° W 19:23:39 10° NW visible
29 Nov 8.6 06:41:09 10° NNE 06:44:36 33° E 06:48:03 10° SSE visible
29 Nov 7.7 17:21:18 10° ESE 17:24:11 23° ENE 17:27:07 10° NNE visible
29 Nov 8.6 18:54:24 10° SSW 18:57:35 29° W 19:00:49 10° NNW visible
30 Nov 9.7 06:18:11 10° NE 06:20:56 19° E 06:23:41 10° SE visible
30 Nov 8.3 16:58:58 10° E 17:00:53 14° ENE 17:02:49 10° NNE visible
30 Nov 7.3 18:30:26 10° S 18:33:58 55° W 18:37:35 10° NNW visible
01 Dec 10.3 05:56:13 10° ENE 05:57:11 11° E 05:58:10 10° ESE visible
01 Dec 6.4 18:06:50 10° SSE 18:10:25 77° ENE 18:14:07 10° N visible
02 Dec 7.3 07:03:53 10° NNE 07:07:38 63° E 07:11:21 10° S visible
02 Dec 7.0 17:43:33 10° SE 17:46:58 40° ENE 17:50:27 10° N visible
02 Dec 9.6 19:18:17 10° SW 19:20:41 17° W 19:23:08 10° NW visible
03 Dec 8.6 06:40:35 10° NNE 06:44:02 33° E 06:47:28 10° SSE visible
03 Dec 7.7 17:20:39 10° ESE 17:23:35 23° ENE 17:26:33 10° NNE visible
03 Dec 8.6 18:53:45 10° SSW 18:56:59 29° W 19:00:16 10° NNW visible
04 Dec 9.7 06:17:36 10° NE 06:20:21 19° E 06:23:04 10° SE visible
04 Dec 8.3 16:58:19 10° E 17:00:16 14° ENE 17:02:15 10° NNE visible
04 Dec 7.3 18:29:46 10° S 18:33:20 56° W 18:37:00 10° NNW visible
